{"data":{"norad_id":59743,"epoch":"2026-09-21T09:48:18.021024Z","epoch_age_seconds":92854,"freshness":"FRESH","line1":"1 59743U 24090P   26264.40854191  .00000224  00000+0  17662-4 0  9998","line2":"2 59743  43.0037 151.1839 0001159 264.8569  95.2150 15.27577987133457","mean_motion":15.27577987,"eccentricity":0.0001159,"inclination_deg":43.0037,"raan_deg":151.1839,"arg_perigee_deg":264.8569,"mean_anomaly_deg":95.215,"bstar":1.7662e-5,"rev_number":13345,"period_min":94.266872935765,"perigee_km":482.25991152531,"apogee_km":483.85033585958,"semimajor_km":6861.1921236924,"source":"CELESTRAK","updated_at":"2026-09-22T09:00:49.064390Z"}}